,,Stat6,,Stat2,,Stat8,,Stat9,,Stat10,,Wind1,,Wind1,
time,status,PA1M_AVG,status,PR1M_SUM,status,RH1M_AVG,status,SR1M_AVG,status,TA1M_AVG,status,W1dAve1m,status,W1sAve1m,
2006-04-02, 00:00:01,VALID,919.493,VALID,0,VALID,99.6925,VALID,-0.0849042,VALID,19.9785,VALID,5,VALID,0.844308,
2006-04-02, 00:01:00,VALID,919.5,VALID,0,VALID,99.6951,VALID,-0.101885,VALID,20.263,VALID,2,VALID,0.676962,
2006-04-02, 00:02:00,VALID,919.498,VALID,0,VALID,99.662,VALID,-0.101885,VALID,19.982,VALID,354,VALID,0.725446,
2006-04-02, 00:03:00,VALID,919.493,VALID,0,VALID,99.7523,VALID,-0.101885,VALID,20.6085,VALID,5,VALID,0.674023,
2006-04-02, 00:04:01,VALID,919.484,VALID,0,VALID,99.7141,VALID,-0.0679233,VALID,19.7729,VALID,14,VALID,0.841751,
2006-04-02, 00:05:00,VALID,919.476,VALID,0,VALID,99.7536,VALID,-0.101885,VALID,20.9226,VALID,17,VALID,0.805804,
2006-04-02, 00:06:01,VALID,919.467,VALID,0,VALID,99.8057,VALID,-0.101885,VALID,21.1405,VALID,359,VALID,0.683222,
2006-04-02, 00:07:01,VALID,919.451,VALID,0,VALID,99.8515,VALID,-0.0679233,VALID,19.6022,VALID,353,VALID,0.495164,
2006-04-02, 00:08:01,VALID,919.438,VALID,0,VALID,99.7828,VALID,-0.101885,VALID,19.4853,VALID,345,VALID,0.699405,
2006-04-02, 00:09:01,VALID,919.441,VALID,0,VALID,99.7332,VALID,-0.101885,VALID,20.3721,VALID,354,VALID,0.645349,
2006-04-02, 00:10:00,VALID,919.425,VALID,0,VALID,99.8184,VALID,-0.101885,VALID,20.3689,VALID,355,VALID,0.472098,
2006-04-02, 00:11:00,VALID,919.418,VALID,0,VALID,99.7777,VALID,-0.0849042,VALID,19.6891,VALID,328,VALID,0.749619,
2006-04-02, 00:12:01,VALID,919.397,VALID,0,VALID,99.8286,VALID,-0.101885,VALID,19.5852,VALID,341,VALID,0.215588,
2006-04-02, 00:13:00,VALID,919.386,VALID,0,VALID,99.8922,VALID,-0.0679233,VALID,19.0551,VALID,335,VALID,0.334579,
2006-04-02, 00:14:01,VALID,919.377,VALID,0,VALID,99.8629,VALID,-0.0849042,VALID,17.9642,VALID,329,VALID,0.303013,
2006-04-02, 00:15:00,VALID,919.353,VALID,0,VALID,99.8744,VALID,-0.0849042,VALID,20.0848,VALID,322,VALID,0.177641,
2006-04-02, 00:16:00,VALID,919.356,VALID,0,VALID,99.9557,VALID,-0.0509425,VALID,21.2727,VALID,317,VALID,0.554155,
2006-04-02, 00:17:00,VALID,919.341,VALID,0,VALID,99.882,VALID,-0.0849042,VALID,20.0474,VALID,287,VALID,0.432165,
2006-04-02, 00:18:00,VALID,919.33,VALID,0,VALID,99.9697,VALID,-0.0339617,VALID,19.9935,VALID,327,VALID,0.532617,
2006-04-02, 00:19:01,VALID,919.327,VALID,0,VALID,99.8362,VALID,-0.101885,VALID,20.6126,VALID,332,VALID,0.55888,
2006-04-02, 00:20:00,VALID,919.322,VALID,0,VALID,99.7968,VALID,-0.101885,VALID,21.2428,VALID,335,VALID,0.744234,
2006-04-02, 00:21:01,VALID,919.319,VALID,0,VALID,99.8082,VALID,-0.0849042,VALID,20.0386,VALID,348,VALID,0.794727,
2006-04-02, 00:22:01,VALID,919.323,VALID,0,VALID,99.6913,VALID,-0.101885,VALID,19.4593,VALID,347,VALID,0.654615,
2006-04-02, 00:23:01,VALID,919.316,VALID,0,VALID,99.6976,VALID,-0.101885,VALID,20.5742,VALID,347,VALID,0.40253,
2006-04-02, 00:24:00,VALID,919.331,VALID,0,VALID,99.793,VALID,-0.0849042,VALID,19.8388,VALID,349,VALID,0.46895,
2006-04-02, 00:25:01,VALID,919.334,VALID,0,VALID,99.8095,VALID,-0.101885,VALID,20.4996,VALID,353,VALID,0.753089,
2006-04-02, 00:26:00,VALID,919.348,VALID,0,VALID,99.7027,VALID,-0.101885,VALID,20.555,VALID,344,VALID,0.654018,
2006-04-02, 00:27:01,VALID,919.359,VALID,0,VALID,99.7078,VALID,-0.0849042,VALID,21.715,VALID,321,VALID,0.518787,
2006-04-02, 00:28:01,VALID,919.38,VALID,0,VALID,99.7777,VALID,-0.101885,VALID,20.7285,VALID,310,VALID,0.232118,
2006-04-02, 00:29:00,VALID,919.375,VALID,0,VALID,99.8273,VALID,-0.101885,VALID,20.174,VALID,310,VALID,0.258213,
2006-04-02, 00:30:01,VALID,919.377,VALID,0,VALID,99.9789,VALID,-0.0169808,VALID,20.3558,VALID,310,VALID,0.121528,
2006-04-02, 00:31:00,VALID,919.38,VALID,0,VALID,99.9952,VALID,-0.0849042,VALID,20.8991,VALID,310,VALID,0.00381541,
2006-04-02, 00:32:00,VALID,919.372,VALID,0,VALID,99.9418,VALID,-0.118866,VALID,20.6154,VALID,310,VALID,0.1379,
2006-04-02, 00:33:01,VALID,919.366,VALID,0,VALID,99.9379,VALID,-0.0849042,VALID,20.4996,VALID,310,VALID,0.091654,
2006-04-02, 00:34:00,VALID,919.362,VALID,0,VALID,99.943,VALID,-0.101885,VALID,20.1609,VALID,310,VALID,0.00218023,
2006-04-02, 00:35:00,VALID,919.339,VALID,0,VALID,99.9227,VALID,-0.0849042,VALID,20.0323,VALID,310,VALID,0.0582217,
2006-04-02, 00:36:00,VALID,919.323,VALID,0,VALID,99.9252,VALID,-0.0849042,VALID,20.9478,VALID,310,VALID,0.0965402,
2006-04-02, 00:37:01,VALID,919.294,VALID,0,VALID,99.9354,VALID,-0.0679233,VALID,19.4796,VALID,310,VALID,0.0926847,
2006-04-02, 00:38:01,VALID,919.278,VALID,0,VALID,99.9214,VALID,-0.0679233,VALID,19.9906,VALID,310,VALID,0.13228,
2006-04-02, 00:39:01,VALID,919.272,VALID,0,VALID,99.9379,VALID,-0.0679233,VALID,20.4553,VALID,310,VALID,0,
2006-04-02, 00:40:00,VALID,919.272,VALID,0,VALID,99.8833,VALID,-0.0509425,VALID,20.5681,VALID,310,VALID,0,
2006-04-02, 00:41:00,VALID,919.264,VALID,0,VALID,99.7803,VALID,-0.0339617,VALID,20.6577,VALID,310,VALID,0,
2006-04-02, 00:42:00,VALID,919.259,VALID,0,VALID,99.7421,VALID,-0.135847,VALID,20.1918,VALID,310,VALID,0.0270833,
2006-04-02, 00:43:00,VALID,919.249,VALID,0,VALID,99.704,VALID,-0.0509425,VALID,20.6346,VALID,310,VALID,0.211483,
2006-04-02, 00:44:01,VALID,919.233,VALID,0,VALID,99.7281,VALID,-0.0339617,VALID,19.8717,VALID,312,VALID,0.164773,
2006-04-02, 00:45:01,VALID,919.22,VALID,0,VALID,99.6404,VALID,-0.0339617,VALID,20.3164,VALID,312,VALID,0.279492,
2006-04-02, 00:46:01,VALID,919.201,VALID,0,VALID,99.62,VALID,-0.0169808,VALID,20.2807,VALID,356,VALID,0.644436,
2006-04-02, 00:47:01,VALID,919.189,VALID,0,VALID,99.662,VALID,-0.101885,VALID,20.4541,VALID,11,VALID,1.0258,
2006-04-02, 00:48:01,VALID,919.188,VALID,0,VALID,99.5666,VALID,-0.101885,VALID,21.3876,VALID,4,VALID,1.01875,
2006-04-02, 00:49:01,VALID,919.177,VALID,0,VALID,99.5908,VALID,-0.101885,VALID,19.3682,VALID,3,VALID,0.841933,
2006-04-02, 00:50:00,VALID,919.163,VALID,0,VALID,99.7943,VALID,-0.152827,VALID,21.0532,VALID,357,VALID,0.703506,
2006-04-02, 00:51:01,VALID,919.151,VALID,0,VALID,99.9278,VALID,-0.118866,VALID,20.4122,VALID,17,VALID,0.820694,
2006-04-02, 00:52:01,VALID,919.133,VALID,0,VALID,99.9723,VALID,-0.135847,VALID,21.1272,VALID,18,VALID,0.665451,
2006-04-02, 00:53:01,VALID,919.128,VALID,0,VALID,99.9201,VALID,-0.101885,VALID,19.9038,VALID,8,VALID,0.117188,
2006-04-02, 00:54:01,VALID,919.109,VALID,0,VALID,99.69,VALID,-0.0509425,VALID,19.9589,VALID,342,VALID,0.0396205,
2006-04-02, 00:55:01,VALID,919.093,VALID,0,VALID,99.6887,VALID,-0.0169808,VALID,21.2756,VALID,342,VALID,0.0500372,
2006-04-02, 00:56:01,VALID,919.061,VALID,0,VALID,99.7574,VALID,0,VALID,20.3661,VALID,342,VALID,0.0592607,
2006-04-02, 00:57:01,VALID,919.058,VALID,0,VALID,99.7485,VALID,-0.0169808,VALID,20.8231,VALID,342,VALID,0.0872713,
2006-04-02, 00:58:01,VALID,919.042,VALID,0,VALID,99.737,VALID,-0.0679233,VALID,20.1993,VALID,341,VALID,0.141533,
2006-04-02, 00:59:00,VALID,919.014,VALID,0,VALID,99.7777,VALID,-0.0849042,VALID,20.9288,VALID,340,VALID,0.0591518,
2006-04-02, 01:00:01,VALID,918.976,VALID,0,VALID,99.7815,VALID,-0.118866,VALID,20.0306,VALID,16,VALID,0.627378,
2006-04-02, 01:01:01,VALID,918.928,VALID,0,VALID,99.9702,VALID,-0.0849042,VALID,19.8827,VALID,15,VALID,0.845788,
2006-04-02, 01:02:00,VALID,918.906,VALID,0,VALID,100,VALID,-0.101885,VALID,19.8645,VALID,23,VALID,0.617018,
2006-04-02, 01:03:00,VALID,918.869,VALID,0,VALID,99.9931,VALID,-0.118866,VALID,20.5417,VALID,22,VALID,0.495276,
2006-04-02, 01:04:01,VALID,918.858,VALID,0,VALID,100,VALID,-0.101885,VALID,20.0623,VALID,22,VALID,0.469141,
2006-04-02, 01:05:01,VALID,918.83,VALID,0,VALID,99.8871,VALID,-0.101885,VALID,19.0205,VALID,18,VALID,0.259266,
2006-04-02, 01:06:01,VALID,918.794,VALID,0,VALID,99.924,VALID,-0.101885,VALID,20.9473,VALID,14,VALID,0.201079,
2006-04-02, 01:07:00,VALID,918.761,VALID,0,VALID,99.91,VALID,-0.101885,VALID,21.7243,VALID,10,VALID,0.428163,
2006-04-02, 01:08:01,VALID,918.719,VALID,0,VALID,99.9725,VALID,-0.118866,VALID,19.981,VALID,22,VALID,0.626389,
2006-04-02, 01:09:01,VALID,918.7,VALID,0,VALID,99.9916,VALID,-0.0849042,VALID,20.6552,VALID,22,VALID,0.773438,
2006-04-02, 01:10:01,VALID,918.666,VALID,0,VALID,99.8805,VALID,-0.101885,VALID,19.6604,VALID,14,VALID,0.435937,
2006-04-02, 01:11:00,VALID,918.637,VALID,0,VALID,99.8337,VALID,-0.101885,VALID,19.9236,VALID,11,VALID,0.556686,
2006-04-02, 01:12:01,VALID,918.618,VALID,0,VALID,99.8489,VALID,-0.101885,VALID,19.5922,VALID,15,VALID,0.582465,
2006-04-02, 01:13:01,VALID,918.595,VALID,0,VALID,99.807,VALID,-0.101885,VALID,19.7574,VALID,3,VALID,0.667878,
2006-04-02, 01:14:01,VALID,918.57,VALID,0,VALID,99.6506,VALID,-0.0509425,VALID,19.898,VALID,360,VALID,0.672408,
2006-04-02, 01:15:01,VALID,918.553,VALID,0,VALID,99.7103,VALID,-0.0849042,VALID,20.2717,VALID,354,VALID,0.706854,
2006-04-02, 01:16:01,VALID,918.542,VALID,0,VALID,99.4382,VALID,-0.0679233,VALID,20.1176,VALID,310,VALID,0.821023,
2006-04-02, 01:17:01,VALID,918.55,VALID,0,VALID,99.5247,VALID,-0.0849042,VALID,20.1703,VALID,307,VALID,0.390811,
2006-04-02, 01:18:01,VALID,918.54,VALID,0,VALID,99.6468,VALID,-0.169808,VALID,20.2088,VALID,326,VALID,0.669457,
2006-04-02, 01:19:01,VALID,918.529,VALID,0,VALID,99.6785,VALID,-0.0509425,VALID,19.7853,VALID,315,VALID,0.510719,
2006-04-02, 01:20:01,VALID,918.505,VALID,0,VALID,99.6137,VALID,-0.0339617,VALID,19.4949,VALID,314,VALID,0.142857,
2006-04-02, 01:21:01,VALID,918.506,VALID,0,VALID,99.7688,VALID,-0.0509425,VALID,19.1699,VALID,314,VALID,0.0887784,
2006-04-02, 01:22:01,VALID,918.503,VALID,0,VALID,99.9667,VALID,-0.118866,VALID,19.4642,VALID,314,VALID,0.00672238,
2006-04-02, 01:23:01,VALID,918.475,VALID,0,VALID,100,VALID,-0.152827,VALID,20.7986,VALID,318,VALID,0.122337,
2006-04-02, 01:24:01,VALID,918.451,VALID,0,VALID,100,VALID,-0.118866,VALID,20.44,VALID,360,VALID,0.423209,
2006-04-02, 01:25:01,VALID,918.412,VALID,0,VALID,100,VALID,-0.0509425,VALID,20.4683,VALID,360,VALID,0.526708,
2006-04-02, 01:26:01,VALID,918.402,VALID,0,VALID,100,VALID,-0.0509425,VALID,20.1848,VALID,9,VALID,0.7125,
2006-04-02, 01:27:01,VALID,918.374,VALID,0,VALID,100,VALID,-0.0509425,VALID,19.66,VALID,10,VALID,0.392485,
2006-04-02, 01:28:01,VALID,918.347,VALID,0,VALID,100,VALID,-0.0169808,VALID,19.5317,VALID,3,VALID,0.525534,
2006-04-02, 01:29:01,VALID,918.338,VALID,0,VALID,99.9941,VALID,-0.0339617,VALID,20.0379,VALID,355,VALID,0.744851,
2006-04-02, 01:30:01,VALID,918.322,VALID,0,VALID,99.9621,VALID,-0.0509425,VALID,19.9358,VALID,347,VALID,0.454649,
2006-04-02, 01:31:01,VALID,918.308,VALID,0,VALID,99.9392,VALID,-0.0679233,VALID,19.0953,VALID,334,VALID,0.314098,
2006-04-02, 01:32:01,VALID,918.302,VALID,0,VALID,99.9903,VALID,-0.0849042,VALID,19.8134,VALID,334,VALID,0.200521,
2006-04-02, 01:33:01,VALID,918.286,VALID,0,VALID,99.9685,VALID,0,VALID,20.6322,VALID,334,VALID,0.139535,
2006-04-02, 01:34:01,VALID,918.251,VALID,0,VALID,99.9743,VALID,-0.0169808,VALID,19.7878,VALID,335,VALID,0.145579,
2006-04-02, 01:35:00,VALID,918.22,VALID,0,VALID,100,VALID,-0.0849042,VALID,19.1538,VALID,337,VALID,0.318576,
2006-04-02, 01:36:00,VALID,918.188,VALID,0,VALID,100,VALID,-0.101885,VALID,20.6136,VALID,24,VALID,0.582961,
2006-04-02, 01:37:00,VALID,918.167,VALID,0,VALID,100,VALID,-0.101885,VALID,20.4861,VALID,24,VALID,0.581214,
2006-04-02, 01:38:00,VALID,918.16,VALID,0,VALID,99.9977,VALID,-0.101885,VALID,19.9245,VALID,20,VALID,0.629092,
2006-04-02, 01:39:00,VALID,918.142,VALID,0,VALID,100,VALID,-0.101885,VALID,19.2229,VALID,4,VALID,0.814215,
2006-04-02, 01:40:00,VALID,918.137,VALID,0,VALID,100,VALID,-0.101885,VALID,19.2736,VALID,3,VALID,0.567073,
2006-04-02, 01:41:00,VALID,918.128,VALID,0,VALID,100,VALID,-0.0849042,VALID,20.1886,VALID,345,VALID,0.542969,
2006-04-02, 01:42:00,VALID,918.118,VALID,0,VALID,100,VALID,-0.101885,VALID,20.6068,VALID,331,VALID,0.364453,
2006-04-02, 01:43:00,VALID,918.113,VALID,0,VALID,100,VALID,-0.0679233,VALID,20.2981,VALID,331,VALID,0.309261,
2006-04-02, 01:44:00,VALID,918.102,VALID,0,VALID,100,VALID,-0.0849042,VALID,19.7533,VALID,331,VALID,0.358103,
2006-04-02, 01:45:00,VALID,918.098,VALID,0,VALID,100,VALID,-0.118866,VALID,20.4201,VALID,331,VALID,0.24256,
2006-04-02, 01:46:00,VALID,918.085,VALID,0,VALID,100,VALID,-0.101885,VALID,21.0324,VALID,332,VALID,0.357617,
2006-04-02, 01:47:00,VALID,918.088,VALID,0,VALID,100,VALID,-0.101885,VALID,20.1185,VALID,347,VALID,0.716518,
2006-04-02, 01:48:00,VALID,918.096,VALID,0,VALID,100,VALID,-0.101885,VALID,20.5049,VALID,359,VALID,1.04167,
2006-04-02, 01:49:00,VALID,918.099,VALID,0,VALID,100,VALID,-0.118866,VALID,19.7595,VALID,355,VALID,0.853993,
2006-04-02, 01:50:00,VALID,918.093,VALID,0,VALID,100,VALID,-0.101885,VALID,20.6209,VALID,9,VALID,0.534201,
2006-04-02, 01:51:00,VALID,918.071,VALID,0,VALID,100,VALID,-0.101885,VALID,20.7024,VALID,358,VALID,0.846236,
2006-04-02, 01:52:00,VALID,918.047,VALID,0,VALID,100,VALID,-0.101885,VALID,19.4643,VALID,8,VALID,0.922931,
2006-04-02, 01:53:00,VALID,918.025,VALID,0,VALID,100,VALID,-0.0849042,VALID,20.1589,VALID,21,VALID,1.06101,
2006-04-02, 01:54:00,VALID,918,VALID,0,VALID,100,VALID,-0.118866,VALID,19.5647,VALID,8,VALID,1.18713,
2006-04-02, 01:55:00,VALID,917.992,VALID,0,VALID,100,VALID,-0.0679233,VALID,19.5762,VALID,5,VALID,0.784702,
2006-04-02, 01:56:00,VALID,917.945,VALID,0,VALID,100,VALID,-0.101885,VALID,19.6886,VALID,353,VALID,0.809775,
2006-04-02, 01:57:00,VALID,917.912,VALID,0,VALID,100,VALID,-0.101885,VALID,20.3861,VALID,5,VALID,0.736133,
2006-04-02, 01:58:00,VALID,917.86,VALID,0,VALID,100,VALID,-0.101885,VALID,19.6709,VALID,23,VALID,1.06213,
2006-04-02, 01:59:00,VALID,917.849,VALID,0,VALID,100,VALID,-0.101885,VALID,20.0045,VALID,23,VALID,0.786044,
2006-04-02, 02:00:00,VALID,917.832,VALID,0,VALID,100,VALID,-0.0849042,VALID,19.3182,VALID,23,VALID,0.641533,
2006-04-02, 02:01:00,VALID,917.821,VALID,0,VALID,100,VALID,-0.0339617,VALID,19.8864,VALID,349,VALID,0.552782,
2006-04-02, 02:02:00,VALID,917.81,VALID,0,VALID,100,VALID,-0.0679233,VALID,20.2078,VALID,336,VALID,0.415968,
2006-04-02, 02:03:00,VALID,917.79,VALID,0,VALID,100,VALID,-0.101885,VALID,19.3763,VALID,5,VALID,0.658381,
2006-04-02, 02:04:00,VALID,917.778,VALID,0,VALID,100,VALID,-0.0849042,VALID,20.8929,VALID,7,VALID,0.514623,
2006-04-02, 02:05:00,VALID,917.771,VALID,0,VALID,100,VALID,-0.0679233,VALID,20.4609,VALID,347,VALID,0.442769,
2006-04-02, 02:06:00,VALID,917.77,VALID,0,VALID,99.9568,VALID,-0.101885,VALID,19.8332,VALID,328,VALID,0.495276,
2006-04-02, 02:07:00,VALID,917.753,VALID,0,VALID,99.9163,VALID,-0.101885,VALID,19.8755,VALID,338,VALID,0.703299,
2006-04-02, 02:08:00,VALID,917.743,VALID,0,VALID,99.9049,VALID,-0.101885,VALID,20.0583,VALID,343,VALID,0.703835,
2006-04-02, 02:09:00,VALID,917.716,VALID,0,VALID,99.8553,VALID,-0.0849042,VALID,19.3691,VALID,341,VALID,1.09189,
2006-04-02, 02:10:00,VALID,917.707,VALID,0,VALID,99.924,VALID,-0.101885,VALID,19.1844,VALID,1,VALID,0.804315,
2006-04-02, 02:11:00,VALID,917.686,VALID,0,VALID,100,VALID,-0.0679233,VALID,19.2766,VALID,7,VALID,0.405717,
2006-04-02, 02:12:00,VALID,917.667,VALID,0,VALID,100,VALID,-0.101885,VALID,18.9799,VALID,7,VALID,0.265816,
2006-04-02, 02:13:00,VALID,917.645,VALID,0,VALID,100,VALID,-0.0679233,VALID,20.322,VALID,7,VALID,0.407703,
2006-04-02, 02:14:00,VALID,917.628,VALID,0,VALID,100,VALID,-0.0509425,VALID,19.9026,VALID,7,VALID,0.76944,
2006-04-02, 02:15:00,VALID,917.61,VALID,0,VALID,100,VALID,-0.0679233,VALID,19.431,VALID,8,VALID,0.822359,
2006-04-02, 02:16:00,VALID,917.616,VALID,0,VALID,100,VALID,-0.0509425,VALID,20.4966,VALID,10,VALID,0.897693,
2006-04-02, 02:17:00,VALID,917.625,VALID,0,VALID,100,VALID,-0.0679233,VALID,19.3839,VALID,22,VALID,0.853795,
2006-04-02, 02:18:00,VALID,917.622,VALID,0,VALID,100,VALID,-0.0679233,VALID,19.5266,VALID,22,VALID,0.764205,
2006-04-02, 02:19:00,VALID,917.639,VALID,0,VALID,100,VALID,-0.101885,VALID,19.6886,VALID,22,VALID,0.377486,
2006-04-02, 02:20:00,VALID,917.631,VALID,0,VALID,100,VALID,-0.101885,VALID,19.5939,VALID,22,VALID,0.651215,
2006-04-02, 02:21:00,VALID,917.62,VALID,0,VALID,100,VALID,-0.0849042,VALID,20.1078,VALID,22,VALID,0.980378,
2006-04-02, 02:22:00,VALID,917.608,VALID,0,VALID,100,VALID,-0.0849042,VALID,19.7182,VALID,20,VALID,1.19382,
2006-04-02, 02:23:00,VALID,917.61,VALID,0,VALID,100,VALID,-0.101885,VALID,18.8348,VALID,19,VALID,1.07087,
2006-04-02, 02:24:00,VALID,917.596,VALID,0,VALID,100,VALID,-0.0849042,VALID,19.6747,VALID,22,VALID,1.07492,
2006-04-02, 02:25:00,VALID,917.59,VALID,0,VALID,100,VALID,-0.0679233,VALID,19.3914,VALID,23,VALID,0.866146,
2006-04-02, 02:26:00,VALID,917.58,VALID,0,VALID,100,VALID,-0.0339617,VALID,19.165,VALID,23,VALID,0.656428,
2006-04-02, 02:27:00,VALID,917.588,VALID,0,VALID,100,VALID,-0.135847,VALID,19.5006,VALID,23,VALID,0.406977,
2006-04-02, 02:28:00,VALID,917.571,VALID,0,VALID,100,VALID,-0.118866,VALID,19.6608,VALID,23,VALID,0.129102,
2006-04-02, 02:29:00,VALID,917.577,VALID,0,VALID,100,VALID,-0.169808,VALID,19.3422,VALID,23,VALID,0.0554497,
2006-04-02, 02:30:00,VALID,917.549,VALID,0,VALID,100,VALID,-0.118866,VALID,19.5383,VALID,23,VALID,0.47603,
2006-04-02, 02:31:00,VALID,917.543,VALID,0,VALID,100,VALID,-0.152827,VALID,19.2786,VALID,23,VALID,0.69093,
2006-04-02, 02:32:00,VALID,917.506,VALID,0,VALID,100,VALID,-0.118866,VALID,19.3598,VALID,21,VALID,0.770894,
2006-04-02, 02:33:00,VALID,917.48,VALID,0,VALID,100,VALID,-0.118866,VALID,19.5446,VALID,18,VALID,0.799924,
2006-04-02, 02:34:00,VALID,917.463,VALID,0,VALID,100,VALID,-0.152827,VALID,19.0915,VALID,341,VALID,1.02344,
2006-04-02, 02:35:00,VALID,917.451,VALID,0,VALID,100,VALID,-0.135847,VALID,19.9527,VALID,2,VALID,0.735305,
2006-04-02, 02:36:00,VALID,917.442,VALID,0,VALID,100,VALID,-0.0169808,VALID,19.1817,VALID,7,VALID,0.81994,
2006-04-02, 02:37:00,VALID,917.441,VALID,0,VALID,100,VALID,-0.0339617,VALID,19.2544,VALID,359,VALID,0.663889,
2006-04-02, 02:38:00,VALID,917.439,VALID,0,VALID,100,VALID,-0.0339617,VALID,19.8435,VALID,337,VALID,0.797057,
2006-04-02, 02:39:00,VALID,917.453,VALID,0,VALID,100,VALID,-0.0509425,VALID,19.7445,VALID,337,VALID,0.446378,
2006-04-02, 02:40:00,VALID,917.437,VALID,0,VALID,100,VALID,-0.0169808,VALID,19.7835,VALID,337,VALID,0.225977,
2006-04-02, 02:41:00,VALID,917.45,VALID,0,VALID,100,VALID,-0.0509425,VALID,19.4625,VALID,352,VALID,0.498264,
2006-04-02, 02:42:00,VALID,917.442,VALID,0,VALID,100,VALID,-0.135847,VALID,19.5635,VALID,357,VALID,0.0325521,
2006-04-02, 02:43:00,VALID,917.427,VALID,0,VALID,100,VALID,-0.118866,VALID,19.1685,VALID,357,VALID,0.224019,
2006-04-02, 02:44:00,VALID,917.401,VALID,0,VALID,100,VALID,-0.0849042,VALID,20.3294,VALID,357,VALID,0.0794271,
2006-04-02, 02:45:00,VALID,917.392,VALID,0,VALID,100,VALID,-0.101885,VALID,20.2586,VALID,357,VALID,0.0552326,
2006-04-02, 02:46:00,VALID,917.39,VALID,0,VALID,100,VALID,-0.118866,VALID,20.37,VALID,357,VALID,0.00113932,
2006-04-02, 02:47:00,VALID,917.385,VALID,0,VALID,100,VALID,-0.101885,VALID,20.1046,VALID,357,VALID,0,
2006-04-02, 02:48:00,VALID,917.399,VALID,0,VALID,100,VALID,-0.101885,VALID,19.8878,VALID,357,VALID,0.147693,
2006-04-02, 02:49:00,VALID,917.385,VALID,0,VALID,100,VALID,-0.0849042,VALID,20.7628,VALID,357,VALID,0.227679,
2006-04-02, 02:50:00,VALID,917.372,VALID,0,VALID,100,VALID,-0.101885,VALID,19.9155,VALID,357,VALID,0.567835,
2006-04-02, 02:51:00,VALID,917.375,VALID,0,VALID,100,VALID,-0.0679233,VALID,19.9606,VALID,2,VALID,0.797917,
2006-04-02, 02:52:00,VALID,917.365,VALID,0,VALID,100,VALID,-0.0679233,VALID,19.6043,VALID,7,VALID,0.575218,
2006-04-02, 02:53:00,VALID,917.365,VALID,0,VALID,100,VALID,-0.118866,VALID,19.7739,VALID,347,VALID,0.865699,
2006-04-02, 02:54:00,VALID,917.39,VALID,0,VALID,100,VALID,-0.0849042,VALID,19.3262,VALID,353,VALID,0.502778,
2006-04-02, 02:55:00,VALID,917.386,VALID,0,VALID,100,VALID,-0.0169808,VALID,20.3897,VALID,354,VALID,0.309338,
2006-04-02, 02:56:00,VALID,917.384,VALID,0,VALID,100,VALID,-0.101885,VALID,20.2229,VALID,3,VALID,0.40957,
2006-04-02, 02:57:00,VALID,917.383,VALID,0,VALID,100,VALID,-0.101885,VALID,19.8694,VALID,334,VALID,0.597222,
2006-04-02, 02:58:00,VALID,917.404,VALID,0,VALID,100,VALID,-0.0169808,VALID,20.3504,VALID,327,VALID,0.725521,
2006-04-02, 02:59:00,VALID,917.395,VALID,0,VALID,100,VALID,-0.101885,VALID,20.5382,VALID,343,VALID,0.416371,
2006-04-02, 03:00:00,VALID,917.396,VALID,0,VALID,100,VALID,-0.101885,VALID,19.1475,VALID,349,VALID,0.465199,
2006-04-02, 03:01:00,VALID,917.402,VALID,0,VALID,100,VALID,-0.101885,VALID,21.0911,VALID,354,VALID,0.84566,
2006-04-02, 03:02:00,VALID,917.407,VALID,0,VALID,100,VALID,-0.0849042,VALID,20.2042,VALID,356,VALID,0.617188,
2006-04-02, 03:03:00,VALID,917.423,VALID,0,VALID,100,VALID,-0.0849042,VALID,19.4189,VALID,356,VALID,0.380149,
2006-04-02, 03:04:00,VALID,917.424,VALID,0,VALID,100,VALID,-0.101885,VALID,19.0602,VALID,356,VALID,0.307958,
2006-04-02, 03:05:00,VALID,917.422,VALID,0,VALID,100,VALID,-0.0679233,VALID,20.2961,VALID,356,VALID,0.271949,
2006-04-02, 03:06:00,VALID,917.403,VALID,0,VALID,100,VALID,-0.101885,VALID,19.5785,VALID,356,VALID,0.39226,
2006-04-02, 03:07:00,VALID,917.387,VALID,0,VALID,100,VALID,-0.0849042,VALID,19.2811,VALID,357,VALID,0.683503,
2006-04-02, 03:08:00,VALID,917.38,VALID,0,VALID,100,VALID,-0.0679233,VALID,19.8648,VALID,354,VALID,0.654688,
2006-04-02, 03:09:00,VALID,917.377,VALID,0,VALID,100,VALID,-0.0679233,VALID,19.7121,VALID,15,VALID,0.817187,
2006-04-02, 03:10:00,VALID,917.371,VALID,0,VALID,100,VALID,0,VALID,18.9453,VALID,13,VALID,0.51456,
2006-04-02, 03:11:00,VALID,917.374,VALID,0,VALID,100,VALID,0,VALID,19.886,VALID,12,VALID,0.576672,
2006-04-02, 03:12:00,VALID,917.386,VALID,0,VALID,100,VALID,-0.0169808,VALID,20.1299,VALID,7,VALID,0.7125,
2006-04-02, 03:13:00,VALID,917.396,VALID,0,VALID,100,VALID,-0.101885,VALID,19.2549,VALID,352,VALID,0.616629,
2006-04-02, 03:14:00,VALID,917.391,VALID,0,VALID,100,VALID,-0.0849042,VALID,19.7173,VALID,342,VALID,0.484184,
2006-04-02, 03:15:00,VALID,917.387,VALID,0,VALID,100,VALID,-0.0509425,VALID,20.0808,VALID,346,VALID,0.548437,
2006-04-02, 03:16:00,VALID,917.374,VALID,0,VALID,100,VALID,-0.0849042,VALID,20.9163,VALID,346,VALID,0.258929,
2006-04-02, 03:17:00,VALID,917.355,VALID,0,VALID,100,VALID,-0.0679233,VALID,19.8639,VALID,346,VALID,0.274926,
2006-04-02, 03:18:00,VALID,917.353,VALID,0,VALID,100,VALID,-0.101885,VALID,19.7095,VALID,349,VALID,0.590554,
2006-04-02, 03:19:00,VALID,917.339,VALID,0,VALID,100,VALID,-0.101885,VALID,19.7837,VALID,1,VALID,0.845238,
2006-04-02, 03:20:00,VALID,917.357,VALID,0,VALID,100,VALID,-0.101885,VALID,19.385,VALID,354,VALID,0.67721,
2006-04-02, 03:21:00,VALID,917.359,VALID,0,VALID,100,VALID,-0.101885,VALID,20.4331,VALID,350,VALID,0.483422,
2006-04-02, 03:22:00,VALID,917.338,VALID,0,VALID,100,VALID,-0.0679233,VALID,20.6562,VALID,350,VALID,0.355382,
2006-04-02, 03:23:00,VALID,917.333,VALID,0,VALID,100,VALID,-0.0849042,VALID,19.9049,VALID,350,VALID,0.280231,
2006-04-02, 03:24:00,VALID,917.297,VALID,0,VALID,100,VALID,-0.101885,VALID,20.2336,VALID,350,VALID,0.306784,
2006-04-02, 03:25:00,VALID,917.273,VALID,0,VALID,100,VALID,-0.0679233,VALID,19.9991,VALID,350,VALID,0.342416,
2006-04-02, 03:26:00,VALID,917.276,VALID,0,VALID,100,VALID,-0.0679233,VALID,19.507,VALID,350,VALID,0.734375,
2006-04-02, 03:27:00,VALID,917.269,VALID,0,VALID,100,VALID,-0.0679233,VALID,19.2976,VALID,350,VALID,0.634028,
2006-04-02, 03:28:00,VALID,917.268,VALID,0,VALID,100,VALID,-0.101885,VALID,19.9362,VALID,350,VALID,0.80221,
2006-04-02, 03:29:00,VALID,917.269,VALID,0,VALID,100,VALID,-0.101885,VALID,18.742,VALID,357,VALID,0.506324,
2006-04-02, 03:30:00,VALID,917.258,VALID,0,VALID,100,VALID,-0.0849042,VALID,19.3492,VALID,357,VALID,0.583757,
2006-04-02, 03:31:00,VALID,917.25,VALID,0,VALID,100,VALID,-0.0509425,VALID,19.4372,VALID,356,VALID,0.793255,
2006-04-02, 03:32:00,VALID,917.245,VALID,0,VALID,100,VALID,-0.0849042,VALID,19.9029,VALID,353,VALID,0.796074,
2006-04-02, 03:33:00,VALID,917.254,VALID,0,VALID,100,VALID,-0.0849042,VALID,19.1235,VALID,349,VALID,0.499428,
2006-04-02, 03:34:00,VALID,917.273,VALID,0,VALID,100,VALID,-0.0849042,VALID,20.3966,VALID,349,VALID,0.24256,
2006-04-02, 03:35:00,VALID,917.283,VALID,0,VALID,100,VALID,-0.118866,VALID,19.6364,VALID,331,VALID,0.296354,